When you browse on this site, cookies collect data to enhance your experience and personalize the content and advertising you see.
Visit our Privacy Policy to learn more. By continuing to use the site, you agree to this use of cookies and data.
  • Em Portugal
  • Lista de países
  • Para 7 dias
  • Temperatura da água
  • Mapa do tempo
  • Widgets de tempo
  • user-avatar
    Iniciar Sessão

    Previsão horária em Staraya Vedernya

    Hoje, 5 Junho, Sexta-feira

    Tempo Temperatura Precipitação Vento Pressão Humidade
    00:00 +10°C° 0 mm 2 m/s 741 mmHg 95%
    01:00 +9°C° 0 mm 2 m/s 741 mmHg 96%
    02:00 +9°C° 0 mm 2 m/s 741 mmHg 97%
    03:00 +9°C° 0 mm 3 m/s 742 mmHg 96%
    04:00 +10°C° 0 mm 3 m/s 742 mmHg 95%
    05:00 +10°C° 0 mm 3 m/s 742 mmHg 95%
    06:00 +12°C° 0 mm 3 m/s 742 mmHg 89%
    07:00 +13°C° 0 mm 3 m/s 743 mmHg 83%
    08:00 +15°C° 0 mm 4 m/s 743 mmHg 78%
    09:00 +17°C° 0.1 mm 4 m/s 743 mmHg 72%
    10:00 +18°C° 0.1 mm 4 m/s 743 mmHg 65%
    11:00 +19°C° 0.1 mm 4 m/s 743 mmHg 59%
    12:00 +19°C° 0.3 mm 4 m/s 743 mmHg 62%
    13:00 +19°C° 0.3 mm 4 m/s 743 mmHg 64%
    14:00 +19°C° 0 mm 4 m/s 743 mmHg 63%
    15:00 +18°C° 0.7 mm 3 m/s 743 mmHg 71%
    16:00 +17°C° 0.7 mm 2 m/s 743 mmHg 78%
    17:00 +16°C° 0.7 mm 2 m/s 743 mmHg 85%
    18:00 +15°C° 0.1 mm 2 m/s 743 mmHg 88%
    19:00 +14°C° 0.1 mm 2 m/s 743 mmHg 91%
    20:00 +13°C° 0.1 mm 2 m/s 744 mmHg 94%
    21:00 +12°C° 0 mm 2 m/s 744 mmHg 95%
    22:00 +10°C° 0 mm 2 m/s 744 mmHg 96%
    23:00 +10°C° 0 mm 2 m/s 744 mmHg 97%

    Amanhã, 6 Junho, Sábado

    Tempo Temperatura Precipitação Vento Pressão Humidade
    00:00 +9°C° 0 mm 2 m/s 744 mmHg 97%
    01:00 +10°C° 0 mm 1 m/s 745 mmHg 97%
    02:00 +10°C° 0 mm 1 m/s 745 mmHg 97%
    03:00 +10°C° 0 mm 1 m/s 745 mmHg 96%
    04:00 +10°C° 0 mm 2 m/s 745 mmHg 96%
    05:00 +10°C° 0 mm 2 m/s 745 mmHg 96%
    06:00 +13°C° 0 mm 2 m/s 745 mmHg 90%
    07:00 +15°C° 0 mm 2 m/s 745 mmHg 85%
    08:00 +16°C° 0 mm 2 m/s 745 mmHg 80%
    09:00 +18°C° 0 mm 3 m/s 745 mmHg 72%
    10:00 +19°C° 0 mm 3 m/s 745 mmHg 64%
    11:00 +21°C° 0 mm 4 m/s 745 mmHg 57%
    12:00 +21°C° 0 mm 4 m/s 745 mmHg 57%
    13:00 +22°C° 0 mm 4 m/s 745 mmHg 58%
    14:00 +23°C° 0 mm 4 m/s 745 mmHg 58%
    15:00 +21°C° 0.8 mm 3 m/s 745 mmHg 70%
    16:00 +20°C° 0.8 mm 2 m/s 745 mmHg 81%
    17:00 +18°C° 0.8 mm 2 m/s 745 mmHg 92%
    18:00 +18°C° 1.2 mm 2 m/s 745 mmHg 94%
    19:00 +18°C° 1.2 mm 2 m/s 745 mmHg 96%
    20:00 +17°C° 1.2 mm 2 m/s 745 mmHg 97%
    21:00 +17°C° 0.1 mm 2 m/s 745 mmHg 97%
    22:00 +16°C° 0.1 mm 2 m/s 746 mmHg 97%
    23:00 +16°C° 0.1 mm 2 m/s 746 mmHg 97%

    Depois de amanhã, 7 Junho, Domingo

    Tempo Temperatura Precipitação Vento Pressão Humidade
    00:00 +16°C° 0 mm 2 m/s 746 mmHg 97%
    01:00 +15°C° 0 mm 2 m/s 747 mmHg 97%
    02:00 +15°C° 0 mm 2 m/s 747 mmHg 97%
    03:00 +15°C° 0 mm 2 m/s 748 mmHg 97%
    04:00 +16°C° 0 mm 2 m/s 748 mmHg 96%
    05:00 +16°C° 0 mm 2 m/s 748 mmHg 95%
    06:00 +17°C° 0 mm 2 m/s 749 mmHg 90%
    07:00 +19°C° 0 mm 2 m/s 749 mmHg 85%
    08:00 +20°C° 0 mm 2 m/s 750 mmHg 79%
    09:00 +21°C° 0 mm 2 m/s 750 mmHg 71%
    10:00 +24°C° 0 mm 2 m/s 751 mmHg 62%
    11:00 +25°C° 0 mm 2 m/s 751 mmHg 54%
    12:00 +26°C° 0 mm 2 m/s 751 mmHg 52%
    13:00 +26°C° 0 mm 2 m/s 751 mmHg 49%
    14:00 +26°C° 0 mm 2 m/s 751 mmHg 47%
    15:00 +26°C° 0 mm 2 m/s 751 mmHg 50%
    16:00 +26°C° 0 mm 1 m/s 751 mmHg 52%
    17:00 +26°C° 0 mm 1 m/s 751 mmHg 55%
    18:00 +23°C° 0 mm 1 m/s 751 mmHg 61%
    19:00 +21°C° 0 mm 1 m/s 751 mmHg 68%
    20:00 +19°C° 0 mm 1 m/s 751 mmHg 74%
    21:00 +19°C° 0 mm 1 m/s 751 mmHg 78%
    22:00 +18°C° 0 mm 1 m/s 752 mmHg 81%
    23:00 +16°C° 0 mm 1 m/s 752 mmHg 85%

    8 Junho, Segunda-feira

    Tempo Temperatura Precipitação Vento Pressão Humidade
    00:00 +15°C° 0 mm 1 m/s 752 mmHg 88%
    01:00 +15°C° 0 mm 1 m/s 752 mmHg 90%
    02:00 +15°C° 0 mm 1 m/s 752 mmHg 92%
    03:00 +16°C° 0 mm 1 m/s 752 mmHg 90%
    04:00 +16°C° 0 mm 1 m/s 752 mmHg 89%
    05:00 +18°C° 0 mm 1 m/s 752 mmHg 87%
    06:00 +20°C° 0 mm 1 m/s 752 mmHg 81%
    07:00 +21°C° 0 mm 2 m/s 752 mmHg 75%
    08:00 +24°C° 0 mm 2 m/s 752 mmHg 69%
    09:00 +25°C° 0 mm 2 m/s 752 mmHg 64%
    10:00 +26°C° 0 mm 2 m/s 752 mmHg 58%
    11:00 +28°C° 0 mm 2 m/s 752 mmHg 52%
    12:00 +28°C° 0 mm 2 m/s 752 mmHg 51%
    13:00 +28°C° 0 mm 2 m/s 752 mmHg 50%
    14:00 +29°C° 0 mm 2 m/s 752 mmHg 49%
    15:00 +29°C° 0 mm 2 m/s 752 mmHg 53%
    16:00 +28°C° 0 mm 2 m/s 751 mmHg 57%
    17:00 +28°C° 0 mm 2 m/s 751 mmHg 61%
    18:00 +26°C° 0 mm 2 m/s 751 mmHg 69%
    19:00 +24°C° 0 mm 2 m/s 751 mmHg 76%
    20:00 +21°C° 0 mm 2 m/s 751 mmHg 83%
    21:00 +20°C° 0 mm 2 m/s 751 mmHg 87%
    22:00 +19°C° 0 mm 2 m/s 752 mmHg 90%
    23:00 +18°C° 0 mm 2 m/s 752 mmHg 94%

    9 Junho, Terça-feira

    Tempo Temperatura Precipitação Vento Pressão Humidade
    00:00 +18°C° 0 mm 2 m/s 752 mmHg 94%
    01:00 +19°C° 0 mm 1 m/s 752 mmHg 95%
    02:00 +18°C° 0 mm 1 m/s 752 mmHg 95%
    03:00 +19°C° 0 mm 1 m/s 752 mmHg 93%
    04:00 +19°C° 0 mm 2 m/s 752 mmHg 91%
    05:00 +19°C° 0 mm 2 m/s 752 mmHg 89%
    06:00 +21°C° 0 mm 2 m/s 752 mmHg 81%
    07:00 +23°C° 0 mm 2 m/s 752 mmHg 74%
    08:00 +25°C° 0 mm 2 m/s 753 mmHg 67%
    09:00 +26°C° 0 mm 2 m/s 753 mmHg 63%
    10:00 +27°C° 0 mm 3 m/s 752 mmHg 58%
    11:00 +28°C° 0 mm 3 m/s 752 mmHg 54%
    12:00 +28°C° 0 mm 3 m/s 752 mmHg 54%
    13:00 +28°C° 0 mm 3 m/s 752 mmHg 53%
    14:00 +29°C° 0 mm 3 m/s 752 mmHg 52%
    15:00 +28°C° 0 mm 3 m/s 752 mmHg 56%
    16:00 +28°C° 0 mm 3 m/s 751 mmHg 59%
    17:00 +27°C° 0 mm 2 m/s 751 mmHg 63%
    18:00 +25°C° 0 mm 2 m/s 751 mmHg 70%
    19:00 +23°C° 0 mm 2 m/s 751 mmHg 78%
    20:00 +21°C° 0 mm 2 m/s 751 mmHg 86%
    21:00 +20°C° 0 mm 2 m/s 751 mmHg 89%
    22:00 +19°C° 0 mm 2 m/s 751 mmHg 92%
    23:00 +18°C° 0 mm 2 m/s 752 mmHg 95%

    10 Junho, Quarta-feira

    Tempo Temperatura Precipitação Vento Pressão Humidade
    00:00 +17°C° 0 mm 2 m/s 751 mmHg 95%
    01:00 +18°C° 0 mm 1 m/s 751 mmHg 96%
    02:00 +18°C° 0 mm 1 m/s 751 mmHg 96%
    03:00 +17°C° 0 mm 2 m/s 751 mmHg 94%
    04:00 +18°C° 0 mm 2 m/s 751 mmHg 92%
    05:00 +18°C° 0 mm 2 m/s 751 mmHg 90%
    06:00 +20°C° 0 mm 2 m/s 751 mmHg 83%
    07:00 +23°C° 0 mm 2 m/s 751 mmHg 77%
    08:00 +24°C° 0 mm 2 m/s 751 mmHg 70%
    09:00 +25°C° 0 mm 2 m/s 751 mmHg 65%
    10:00 +26°C° 0 mm 2 m/s 751 mmHg 60%
    11:00 +27°C° 0 mm 3 m/s 751 mmHg 55%
    12:00 +27°C° 0 mm 2 m/s 750 mmHg 55%
    13:00 +28°C° 0 mm 2 m/s 750 mmHg 54%
    14:00 +28°C° 0 mm 2 m/s 750 mmHg 53%
    15:00 +28°C° 0.1 mm 2 m/s 749 mmHg 57%
    16:00 +27°C° 0.1 mm 2 m/s 749 mmHg 61%
    17:00 +27°C° 0.1 mm 2 m/s 749 mmHg 65%
    18:00 +25°C° 0.1 mm 1 m/s 749 mmHg 72%
    19:00 +23°C° 0.1 mm 1 m/s 749 mmHg 79%
    20:00 +21°C° 0.1 mm 1 m/s 748 mmHg 86%
    21:00 +20°C° 0 mm 1 m/s 748 mmHg 88%
    22:00 +20°C° 0 mm 1 m/s 748 mmHg 90%
    23:00 +19°C° 0 mm 1 m/s 748 mmHg 93%
    Mostrar mais